[[{"header":{"parameterUnit":"m.s-1","parameterCategory":1,"la1":30.2991,"la2":30.254,"lo1":-89.0895,"lo2":-89.0444,"dy":0.0017,"dx":0.0017,"nx":28,"ny":28,"refTime":"2025-07-18T09:00:00:Z","depth":0,"parameterNumber":2,"parameterNumberName":"U-component_of_WINDS"},"data":[0,0,0,0,0,0,0,0,0,0,0,0,0,0,0,0,0,0,0,0,0,0,0,0,0,0,0,0,0,0,0,0,0,0,0,0,0,0,0,0,0,0,0,0,0,0,0,0,0,0,0,0,0,0,0,0,0,0,2.5764,2.5764,0,2.5738,2.5738,2.5737,2.5678,2.5677,2.5675,2.5674,2.5647,2.5647,2.5648,0,0,0,0,0,0,0,0,0,0,0,0,0,2.5762,2.5762,2.5764,2.5764,2.5764,2.5738,2.5737,2.5737,2.5678,2.5677,2.5675,2.5674,2.5647,2.5647,2.5648,0,0,0,0,0,0,0,0,0,0,0,0,0,2.5752,2.5762,2.5764,2.5731,2.5728,2.5738,2.5737,2.5737,2.5678,2.5677,2.5675,2.5673,2.5647,2.5647,2.5648,2.5688,0,0,2.565,2.565,0,0,0,0,0,0,0,0,2.5752,2.5752,2.5736,2.5733,2.573,2.5709,2.5726,2.5721,2.5679,2.5697,2.5674,2.5672,2.5669,2.5668,2.5667,2.5687,2.5686,2.565,2.565,2.565,2.5651,0,0,0,0,0,0,0,2.5753,2.5753,2.5754,2.5736,2.5732,2.5717,2.5713,2.5725,2.5694,2.5695,2.5691,2.5689,2.5667,2.5666,2.5666,2.5685,2.565,2.565,2.5651,2.5651,2.5733,2.5735,0,0,0,0,0,0,2.5759,2.5754,2.5755,2.5753,2.5737,2.5718,2.5714,2.5718,2.5693,2.5688,2.569,2.5686,2.5666,2.5665,2.5665,2.5708,2.565,2.5651,2.5651,2.5732,2.5734,2.5736,0,0,0,0,0,0,2.5759,2.576,2.5756,2.5752,2.575,2.572,2.5724,2.5718,2.5717,2.569,2.5684,2.5696,2.5665,2.5664,2.5682,2.5706,2.5651,2.5652,2.573,2.5732,2.5735,2.5796,0,0,0,0,0,0,2.5759,2.576,2.5776,2.5753,2.5751,2.5774,2.5726,2.5719,2.5719,2.5713,2.5693,2.5688,2.5663,2.5681,2.5683,2.5706,2.5652,2.5727,2.5731,2.5734,2.5792,2.58,2.5808,0,0,0,0,0,2.5759,2.5795,2.5777,2.5777,2.577,2.5776,2.5775,2.5746,2.5721,2.5736,2.5717,2.5688,2.5703,2.5684,2.5685,2.5708,2.5726,2.573,2.5734,2.5788,2.5799,2.5808,0,0,0,0,0,0,2.5822,2.5791,2.5771,2.58,2.5791,2.5766,2.5784,2.5759,2.5756,2.5751,2.5715,2.5711,2.5734,2.5723,2.5702,2.5744,2.571,2.5714,2.5751,2.576,2.5769,2.577,2.5653,0,0,0,0,0,2.5839,2.5847,2.5819,2.5848,2.5844,2.5815,2.5817,2.5795,2.5784,2.578,2.5763,2.5753,2.5755,2.5757,2.5758,2.579,2.5783,2.5807,2.5815,2.5822,2.5825,2.5839,2.5848,2.5749,2.5749,2.5749,0,0,2.5874,2.5858,2.5866,2.586,2.585,2.5858,2.5812,2.5823,2.5828,2.5781,2.5797,2.5784,2.5771,2.5795,2.5805,2.5787,2.5851,2.5827,2.5833,2.5833,2.5844,2.5853,2.5861,2.5752,2.5752,2.5751,0,0,2.5942,2.5932,2.5953,2.5944,2.5929,2.5909,2.5914,2.5893,2.5882,2.5897,2.5861,2.5867,2.5872,2.5863,2.5859,2.5921,2.5893,2.5922,2.5965,2.5978,2.5986,2.5992,2.6012,2.602,2.5927,2.5927,2.5927,0,2.5988,2.5999,2.5967,2.5979,2.5977,2.5934,2.5954,2.5947,2.5933,2.5932,2.5912,2.5916,2.5904,2.5924,2.5939,2.5938,2.5941,2.5924,2.5987,2.5993,2.5999,2.6018,2.6025,2.593,2.593,2.5929,2.5929,0,2.6054,2.6062,2.6081,2.6068,2.6067,2.6084,2.6053,2.6057,2.6034,2.6016,2.603,2.6015,2.601,2.6013,2.5993,2.603,2.6019,2.5994,2.5958,2.6013,2.6029,2.6036,2.5935,2.5934,2.5933,2.5932,0,0,2.6162,2.6129,2.6137,2.6129,2.6109,2.6114,2.6127,2.6122,2.6124,2.6117,2.6125,2.613,2.6105,2.6101,2.6078,2.609,2.6137,2.6063,2.6062,2.6076,2.6175,2.6193,2.6202,2.6119,2.612,2.6121,2.6175,0,2.6224,2.6245,2.6215,2.6242,2.6248,2.6206,2.6217,2.6206,2.6189,2.619,2.6171,2.6174,2.6143,2.6139,2.6149,2.613,2.6156,2.6125,2.6126,2.6126,2.6129,2.6211,2.623,2.6282,2.6182,2.6183,2.6184,0,2.6299,2.6293,2.6321,2.6296,2.6297,2.6308,2.6299,2.6302,2.6287,2.6273,2.6268,2.624,2.625,2.6216,2.6228,2.6207,2.6206,2.6196,2.6197,2.6195,2.6157,2.6209,2.6298,2.6305,2.6194,2.6193,2.6192,0,2.6372,2.6371,2.6386,2.6381,2.6354,2.6362,2.6351,2.6334,2.6332,2.6324,2.6322,2.6317,2.6313,2.6309,2.628,2.6258,2.6294,2.6259,2.6282,2.6283,2.6291,2.629,2.6379,2.6293,2.6293,2.6293,2.6292,0,2.6443,2.6461,2.6418,2.6427,2.6445,2.6411,2.643,2.6414,2.6399,2.6404,2.6368,2.6373,2.6336,2.6336,2.6314,2.6326,2.6325,2.6313,2.6307,2.6316,2.6317,2.6313,2.6308,2.6295,2.6294,2.6294,2.6293,0,2.6527,2.6499,2.6513,2.6485,2.6478,2.6493,2.6468,2.6475,2.6455,2.6461,2.6461,2.6429,2.6428,2.6399,2.6392,2.6376,2.6397,2.6385,2.6402,2.6397,2.6421,2.6419,2.6509,2.6518,2.6428,2.6429,2.643,0,2.6573,2.6586,2.6559,2.6559,2.6549,2.6551,2.6548,2.6514,2.6512,2.6495,2.6503,2.6499,2.6493,2.6493,2.6469,2.6463,2.6449,2.6481,2.6448,2.6455,2.6447,2.6446,2.6445,2.6488,2.6489,2.649,2.649,0,2.6658,2.6643,2.6641,2.6632,2.663,2.6622,2.6612,2.6614,2.6576,2.6576,2.6574,2.657,2.6561,2.6556,2.6545,2.6533,2.6505,2.6501,2.6506,2.6514,2.6523,2.6516,2.6419,2.6499,2.6498,2.6498,2.6497,2.6497,2.6723,2.6731,2.6713,2.671,2.6699,2.6689,2.6694,2.6673,2.6671,2.6661,2.6641,2.6641,2.6623,2.6605,2.6595,2.6594,2.6578,2.6585,2.6587,2.6589,2.6592,2.6524,2.6592,2.6592,2.6592,2.6592,2.6591,0,2.6804,2.679,2.6788,2.6774,2.6771,2.6745,2.6732,2.6731,2.6732,2.6717,2.6712,2.6708,2.6703,2.6678,2.667,2.6673,2.666,2.6672,2.6671,2.6668,2.6609,2.6605,2.6683,2.6683,2.6683,2.6683,2.6683,2.6683,2.6846,2.6857,2.684,2.6844,2.6829,2.6829,2.6823,2.6814,2.6802,2.6799,2.6794,2.6778,2.6758,2.6748,2.6741,2.6734,2.6732,2.6748,2.6736,2.6681,2.6672,2.6664,2.6659,2.6748,2.6748,2.6794,2.6795,2.6795]},{"header":{"parameterUnit":"m.s-1","parameterCategory":1,"la1":30.2991,"la2":30.254,"lo1":-89.0895,"lo2":-89.0444,"dy":0.0017,"dx":0.0017,"nx":28,"ny":28,"refTime":"2025-07-18T09:00:00:Z","depth":0,"parameterNumber":3,"parameterNumberName":"V-component_of_WINDS"},"data":[0,0,0,0,0,0,0,0,0,0,0,0,0,0,0,0,0,0,0,0,0,0,0,0,0,0,0,0,0,0,0,0,0,0,0,0,0,0,0,0,0,0,0,0,0,0,0,0,0,0,0,0,0,0,0,0,0,0,5.1295,5.1296,0,5.145,5.1452,5.1454,5.1469,5.1468,5.1466,5.1465,5.1618,5.1623,5.1629,0,0,0,0,0,0,0,0,0,0,0,0,0,5.1004,5.1009,5.1294,5.1296,5.1298,5.145,5.1452,5.1454,5.147,5.1468,5.1466,5.1464,5.1616,5.1623,5.1629,0,0,0,0,0,0,0,0,0,0,0,0,0,5.1141,5.1011,5.1294,5.1324,5.1329,5.1449,5.1452,5.1455,5.147,5.1468,5.1465,5.1463,5.1614,5.1622,5.163,5.1729,0,0,5.1656,5.1659,0,0,0,0,0,0,0,0,5.1134,5.1152,5.1318,5.1323,5.1328,5.1438,5.1406,5.1547,5.1471,5.1416,5.1465,5.1462,5.156,5.1572,5.1606,5.1737,5.1743,5.1656,5.1662,5.1665,5.1667,0,0,0,0,0,0,0,5.1124,5.1145,5.1356,5.132,5.1326,5.1328,5.1345,5.1432,5.1499,5.1421,5.1422,5.1441,5.1562,5.1598,5.161,5.1745,5.1656,5.1664,5.1669,5.1672,5.1964,5.1966,0,0,0,0,0,0,5.111,5.1137,5.1351,5.136,5.1223,5.1335,5.1354,5.1405,5.1498,5.151,5.1443,5.1441,5.1585,5.16,5.1616,5.1738,5.1665,5.1673,5.1678,5.1961,5.1964,5.1967,0,0,0,0,0,0,5.1103,5.1129,5.1345,5.125,5.1277,5.1343,5.14,5.1409,5.1446,5.1515,5.1526,5.1469,5.1584,5.1604,5.1701,5.1744,5.1677,5.1684,5.1958,5.1962,5.1966,5.1984,0,0,0,0,0,0,5.1095,5.1126,5.1166,5.125,5.1282,5.143,5.1402,5.1414,5.1461,5.146,5.1542,5.1553,5.1584,5.1689,5.171,5.1754,5.1691,5.1954,5.196,5.1965,5.198,5.1988,5.1995,0,0,0,0,0,5.1085,5.1164,5.1168,5.1194,5.1334,5.1432,5.145,5.1486,5.1465,5.1504,5.1548,5.1551,5.1735,5.1699,5.1722,5.177,5.1952,5.1958,5.1964,5.1976,5.1986,5.1995,0,0,0,0,0,0,5.1082,5.1176,5.1182,5.1291,5.1354,5.1435,5.1487,5.1495,5.1564,5.156,5.1598,5.1616,5.1712,5.175,5.1708,5.187,5.1841,5.1852,5.1842,5.1852,5.186,5.1849,5.1698,0,0,0,0,0,5.1094,5.1168,5.1245,5.1334,5.1366,5.142,5.1464,5.1486,5.1552,5.1578,5.1629,5.1691,5.1763,5.1809,5.1879,5.1985,5.2002,5.2029,5.2036,5.2042,5.2052,5.211,5.2122,5.1988,5.1988,5.1987,0,0,5.112,5.118,5.1224,5.1335,5.1386,5.146,5.1443,5.1522,5.1576,5.1589,5.1685,5.1725,5.1796,5.1898,5.1945,5.1932,5.2092,5.205,5.2054,5.2061,5.2117,5.213,5.2141,5.1992,5.1991,5.199,0,0,5.1205,5.1258,5.1339,5.139,5.1469,5.1505,5.1523,5.1603,5.1631,5.1728,5.1739,5.1803,5.1926,5.1977,5.2019,5.2121,5.2126,5.2142,5.2183,5.2239,5.225,5.2259,5.2296,5.2309,5.2151,5.2151,5.2151,0,5.1227,5.1341,5.1378,5.1458,5.1505,5.1522,5.1602,5.1649,5.1745,5.1777,5.1762,5.1917,5.1966,5.208,5.2105,5.2138,5.216,5.2134,5.2245,5.2255,5.2265,5.23,5.2314,5.2153,5.2153,5.2153,5.2153,0,5.1364,5.1442,5.1497,5.1592,5.1646,5.1725,5.1772,5.1821,5.1837,5.1874,5.1971,5.2031,5.2113,5.2141,5.2157,5.2257,5.2247,5.2238,5.221,5.2279,5.2313,5.2327,5.2155,5.2155,5.2154,5.2154,0,0,5.1453,5.1567,5.1587,5.163,5.1717,5.1777,5.1855,5.1938,5.1979,5.2044,5.211,5.2214,5.2206,5.2253,5.2275,5.2324,5.2401,5.2309,5.2311,5.2324,5.2515,5.2521,5.2537,5.2404,5.2407,5.2409,5.2509,0,5.1549,5.1693,5.1728,5.185,5.1922,5.1938,5.2006,5.2065,5.2101,5.2166,5.2204,5.2277,5.2261,5.229,5.2339,5.2381,5.244,5.2375,5.2465,5.2468,5.2448,5.2555,5.2562,5.2654,5.2522,5.2524,5.2526,0,5.1681,5.1751,5.188,5.1957,5.1989,5.205,5.2128,5.219,5.2257,5.2279,5.2331,5.2348,5.2428,5.2395,5.2505,5.246,5.2499,5.2525,5.2529,5.254,5.2502,5.2569,5.2684,5.2698,5.2547,5.2546,5.2544,0,5.1733,5.186,5.1954,5.199,5.2082,5.2124,5.2164,5.2229,5.2275,5.2342,5.2373,5.2447,5.2488,5.2544,5.2579,5.2552,5.2687,5.2657,5.2707,5.2706,5.2736,5.2734,5.2859,5.2759,5.2759,5.2758,5.2758,0,5.1837,5.1916,5.1979,5.2037,5.2125,5.2162,5.2248,5.2287,5.2344,5.2409,5.2425,5.2485,5.2527,5.2592,5.2619,5.2706,5.2724,5.2744,5.275,5.2743,5.2741,5.277,5.2765,5.2762,5.2761,5.276,5.276,0,5.1912,5.1958,5.2061,5.214,5.2161,5.2222,5.2289,5.2344,5.238,5.2461,5.2482,5.2537,5.2614,5.2654,5.275,5.2768,5.2866,5.2869,5.2845,5.2848,5.2896,5.2891,5.3046,5.3068,5.2951,5.2953,5.2953,0,5.1976,5.2038,5.2123,5.2168,5.221,5.2282,5.233,5.2369,5.2418,5.2498,5.2543,5.2622,5.2687,5.2808,5.2856,5.2928,5.2933,5.2982,5.2944,5.2935,5.2935,5.2931,5.2937,5.2989,5.299,5.2991,5.2992,0,5.2086,5.2105,5.2175,5.2253,5.231,5.2373,5.2435,5.247,5.2518,5.2572,5.2652,5.2702,5.28,5.2877,5.2954,5.2992,5.3,5.3003,5.3019,5.3013,5.2997,5.3007,5.2864,5.3,5.2999,5.2999,5.2998,5.2998,5.2158,5.2213,5.2282,5.2359,5.2409,5.2466,5.2523,5.2566,5.2634,5.2718,5.2735,5.282,5.2883,5.2987,5.3027,5.3093,5.3082,5.3105,5.3111,5.3116,5.3119,5.2986,5.3106,5.3106,5.3106,5.3106,5.3106,0,5.2268,5.2313,5.2384,5.247,5.2531,5.2534,5.2602,5.2651,5.2726,5.2785,5.2849,5.294,5.3015,5.3068,5.3143,5.3185,5.319,5.3204,5.3201,5.321,5.3123,5.3103,5.3198,5.3198,5.3198,5.3198,5.3198,5.3198,5.2333,5.2427,5.2454,5.2571,5.2615,5.27,5.2738,5.279,5.2838,5.2939,5.3002,5.3037,5.3093,5.3173,5.324,5.3254,5.3281,5.3294,5.3308,5.3226,5.3216,5.3207,5.3188,5.33,5.33,5.339,5.3391,5.3391]}]]